HAZ2620 ZUTF-ZSHC

Flight info

Callsign HAZ2620
Flight time 2h 2m
Altitude 37100
Route UBRAB7D UBRAB B213 WHA R343 UPLEL W95 SAPIN A470 IGRAT IGRAT52
Aircraft A339/H-SADE1E2E3GHIJ3J5M1P2RWXY/LB2D1

Departure

Time 2026-05-06 04:13
Airport Chengdu Tianfu International Airport (ZUTF)

Arrival

Time 2026-05-06 06:15
Airport Hangzhou Xiaoshan International Airport (ZSHC)
Time Latitude Longitude Altitude Speed Heading
2026-05-06 03:44 30.31394 104.43712 1468 ft 0 kts 47°
2026-05-06 03:59 30.31391 104.43709 1468 ft 2 kts 55°
2026-05-06 03:59 30.31383 104.43694 1468 ft 2 kts 52°
2026-05-06 03:59 30.31372 104.43680 1468 ft 2 kts 45°
2026-05-06 04:00 30.31361 104.43668 1468 ft 2 kts 46°
2026-05-06 04:00 30.31354 104.43658 1468 ft 2 kts 47°
2026-05-06 04:00 30.31340 104.43641 1468 ft 2 kts 47°
2026-05-06 04:00 30.31333 104.43632 1468 ft 2 kts 46°
2026-05-06 04:01 30.31319 104.43620 1468 ft 2 kts 12°
2026-05-06 04:01 30.31304 104.43619 1468 ft 0 kts 348°
2026-05-06 04:01 30.31300 104.43620 1468 ft 0 kts 347°
2026-05-06 04:04 30.31301 104.43620 1468 ft 0 kts 346°
2026-05-06 04:04 30.31313 104.43616 1468 ft 3 kts 340°
2026-05-06 04:04 30.31339 104.43597 1468 ft 5 kts 319°
2026-05-06 04:04 30.31369 104.43549 1468 ft 8 kts 297°
2026-05-06 04:05 30.31397 104.43475 1468 ft 11 kts 291°
2026-05-06 04:05 30.31429 104.43385 1468 ft 12 kts 294°
2026-05-06 04:05 30.31464 104.43293 1468 ft 12 kts 292°
2026-05-06 04:05 30.31443 104.43206 1468 ft 12 kts 213°
2026-05-06 04:06 30.31360 104.43163 1468 ft 13 kts 202°
2026-05-06 04:06 30.31271 104.43121 1468 ft 13 kts 202°
2026-05-06 04:06 30.31182 104.43079 1468 ft 14 kts 202°
2026-05-06 04:06 30.31090 104.43036 1468 ft 14 kts 202°
2026-05-06 04:07 30.30988 104.42989 1468 ft 16 kts 202°
2026-05-06 04:07 30.30875 104.42935 1468 ft 18 kts 202°
2026-05-06 04:07 30.30755 104.42879 1468 ft 18 kts 202°
2026-05-06 04:07 30.30636 104.42823 1468 ft 18 kts 202°
2026-05-06 04:08 30.30520 104.42768 1468 ft 17 kts 202°
2026-05-06 04:08 30.30404 104.42714 1468 ft 17 kts 202°
2026-05-06 04:08 30.30288 104.42659 1468 ft 17 kts 202°
2026-05-06 04:08 30.30172 104.42604 1468 ft 18 kts 202°
2026-05-06 04:09 30.30045 104.42545 1468 ft 20 kts 202°
2026-05-06 04:09 30.29904 104.42477 1468 ft 21 kts 202°
2026-05-06 04:09 30.29768 104.42415 1468 ft 20 kts 201°
2026-05-06 04:09 30.29635 104.42352 1468 ft 20 kts 202°
2026-05-06 04:10 30.29505 104.42291 1468 ft 19 kts 202°
2026-05-06 04:10 30.29378 104.42231 1468 ft 19 kts 202°
2026-05-06 04:10 30.29255 104.42174 1468 ft 18 kts 202°
2026-05-06 04:10 30.29135 104.42117 1468 ft 18 kts 202°
2026-05-06 04:11 30.29020 104.42062 1468 ft 12 kts 202°
2026-05-06 04:11 30.28977 104.42012 1468 ft 9 kts 264°
2026-05-06 04:11 30.28991 104.41934 1468 ft 10 kts 290°
2026-05-06 04:11 30.29021 104.41847 1468 ft 12 kts 292°
2026-05-06 04:12 30.29074 104.41772 1468 ft 12 kts 351°
2026-05-06 04:12 30.29147 104.41800 1468 ft 12 kts 21°
2026-05-06 04:12 30.29305 104.41874 1468 ft 48 kts 21°
2026-05-06 04:12 30.29805 104.42107 1468 ft 105 kts 21°
2026-05-06 04:13 30.30654 104.42505 1469 ft 153 kts 21°
2026-05-06 04:13 30.31710 104.43017 1789 ft 165 kts 24°
2026-05-06 04:13 30.32771 104.43527 2318 ft 165 kts 19°
2026-05-06 04:13 30.33906 104.43869 2868 ft 168 kts
2026-05-06 04:14 30.35068 104.43962 3377 ft 167 kts
2026-05-06 04:14 30.36248 104.44024 3749 ft 170 kts
2026-05-06 04:14 30.37482 104.44181 3991 ft 183 kts
2026-05-06 04:14 30.38794 104.44389 4242 ft 196 kts 13°
2026-05-06 04:15 30.40150 104.44909 4493 ft 210 kts 25°
2026-05-06 04:15 30.41522 104.45731 4775 ft 226 kts 28°
2026-05-06 04:15 30.42980 104.46658 5073 ft 243 kts 28°
2026-05-06 04:15 30.44534 104.47652 5450 ft 257 kts 28°
2026-05-06 04:16 30.46115 104.48666 6063 ft 260 kts 28°
2026-05-06 04:16 30.47725 104.49697 6707 ft 263 kts 28°
2026-05-06 04:16 30.49337 104.50729 7310 ft 267 kts 28°
2026-05-06 04:16 30.51006 104.51795 7901 ft 272 kts 28°
2026-05-06 04:17 30.52677 104.52862 8511 ft 276 kts 28°
2026-05-06 04:17 30.54366 104.53941 9139 ft 280 kts 28°
2026-05-06 04:17 30.56080 104.55039 9731 ft 284 kts 28°
2026-05-06 04:17 30.57847 104.56171 10233 ft 292 kts 28°
2026-05-06 04:18 30.59677 104.57343 10515 ft 308 kts 27°
2026-05-06 04:18 30.61598 104.58572 10785 ft 324 kts 28°
2026-05-06 04:18 30.63648 104.59884 11061 ft 340 kts 28°
2026-05-06 04:18 30.65773 104.61247 11326 ft 355 kts 28°
2026-05-06 04:19 30.67992 104.62672 11577 ft 370 kts 28°
2026-05-06 04:19 30.70237 104.64253 11842 ft 383 kts 38°
2026-05-06 04:19 30.71975 104.66658 12305 ft 392 kts 60°
2026-05-06 04:19 30.72897 104.69635 12888 ft 395 kts 79°
2026-05-06 04:20 30.73364 104.72785 13440 ft 399 kts 80°
2026-05-06 04:20 30.73848 104.75975 13953 ft 403 kts 79°
2026-05-06 04:20 30.74348 104.79188 14468 ft 407 kts 79°
2026-05-06 04:20 30.74861 104.82438 15018 ft 410 kts 78°
2026-05-06 04:21 30.75382 104.85717 15555 ft 412 kts 78°
2026-05-06 04:21 30.75916 104.89056 16079 ft 415 kts 78°
2026-05-06 04:21 30.76461 104.92451 16584 ft 419 kts 78°
2026-05-06 04:21 30.77009 104.95873 17117 ft 421 kts 77°
2026-05-06 04:22 30.77553 104.99284 17623 ft 423 kts 77°
2026-05-06 04:22 30.78103 105.02716 18104 ft 427 kts 77°
2026-05-06 04:22 30.78659 105.06175 18569 ft 430 kts 77°
2026-05-06 04:23 30.79776 105.13178 19457 ft 439 kts 77°
2026-05-06 04:23 30.80343 105.16750 19890 ft 442 kts 77°
2026-05-06 04:23 30.80900 105.20274 20315 ft 446 kts 78°
2026-05-06 04:23 30.81466 105.23857 20747 ft 449 kts 78°
2026-05-06 04:24 30.82028 105.27430 21150 ft 453 kts 78°
2026-05-06 04:24 30.82605 105.31095 21533 ft 456 kts 78°
2026-05-06 04:24 30.83182 105.34776 21912 ft 460 kts 78°
2026-05-06 04:24 30.83760 105.38470 22298 ft 464 kts 78°
2026-05-06 04:25 30.84371 105.42154 22688 ft 466 kts 76°
2026-05-06 04:25 30.85123 105.45850 23044 ft 469 kts 75°
2026-05-06 04:25 30.85928 105.49628 23401 ft 473 kts 75°
2026-05-06 04:25 30.86727 105.53346 23776 ft 476 kts 75°
2026-05-06 04:26 30.87553 105.57202 24176 ft 479 kts 75°
2026-05-06 04:26 30.88360 105.60980 24533 ft 482 kts 75°
2026-05-06 04:26 30.89175 105.64805 24859 ft 486 kts 75°
2026-05-06 04:26 30.89998 105.68681 25224 ft 489 kts 75°
2026-05-06 04:27 30.90819 105.72552 25560 ft 492 kts 75°
2026-05-06 04:27 30.91643 105.76449 25891 ft 495 kts 75°
2026-05-06 04:27 30.92472 105.80378 26248 ft 497 kts 75°
2026-05-06 04:27 30.93307 105.84338 26573 ft 500 kts 75°
2026-05-06 04:28 30.94135 105.88279 26900 ft 503 kts 75°
2026-05-06 04:28 30.94955 105.92185 27221 ft 505 kts 75°
2026-05-06 04:28 30.95751 105.96210 27673 ft 505 kts 79°
2026-05-06 04:28 30.96077 106.00243 28144 ft 504 kts 89°
2026-05-06 04:29 30.95861 106.04295 28580 ft 503 kts 98°
2026-05-06 04:29 30.95132 106.08249 29018 ft 502 kts 105°
2026-05-06 04:29 30.94187 106.12169 29481 ft 501 kts 107°
2026-05-06 04:29 30.93220 106.16054 29914 ft 501 kts 107°
2026-05-06 04:30 30.92272 106.19927 30307 ft 501 kts 107°
2026-05-06 04:30 30.91334 106.23827 30702 ft 502 kts 107°
2026-05-06 04:30 30.90403 106.27727 31136 ft 501 kts 106°
2026-05-06 04:30 30.89399 106.31600 31558 ft 499 kts 110°
2026-05-06 04:31 30.88116 106.35342 31943 ft 498 kts 116°
2026-05-06 04:31 30.86532 106.38958 32329 ft 496 kts 122°
2026-05-06 04:31 30.84695 106.42347 32720 ft 493 kts 127°
2026-05-06 04:31 30.82647 106.45484 33088 ft 491 kts 132°
2026-05-06 04:32 30.80358 106.48443 33443 ft 488 kts 137°
2026-05-06 04:32 30.77919 106.51167 33775 ft 487 kts 140°
2026-05-06 04:32 30.75428 106.53835 34076 ft 488 kts 141°
2026-05-06 04:32 30.72903 106.56531 34376 ft 488 kts 140°
2026-05-06 04:33 30.70407 106.59214 34682 ft 489 kts 140°
2026-05-06 04:33 30.67908 106.61911 34972 ft 489 kts 140°
2026-05-06 04:33 30.65403 106.64616 35233 ft 490 kts 141°
2026-05-06 04:33 30.62887 106.67331 35466 ft 491 kts 141°
2026-05-06 04:34 30.60366 106.70050 35662 ft 493 kts 141°
2026-05-06 04:34 30.57838 106.72775 35837 ft 495 kts 141°
2026-05-06 04:34 30.55307 106.75505 36015 ft 497 kts 141°
2026-05-06 04:34 30.52761 106.78251 36192 ft 499 kts 141°
2026-05-06 04:35 30.50215 106.80997 36376 ft 500 kts 141°
2026-05-06 04:35 30.47688 106.83720 36563 ft 502 kts 141°
2026-05-06 04:35 30.45098 106.86510 36755 ft 503 kts 141°
2026-05-06 04:35 30.42533 106.89276 36884 ft 505 kts 141°
2026-05-06 04:36 30.39959 106.92045 36903 ft 507 kts 141°
2026-05-06 04:36 30.34811 106.97573 36889 ft 506 kts 142°
2026-05-06 04:37 30.29505 107.03054 36889 ft 506 kts 143°
2026-05-06 04:37 30.24216 107.08457 36888 ft 507 kts 143°
2026-05-06 04:38 30.18913 107.13899 36894 ft 508 kts 143°
2026-05-06 04:38 30.13652 107.19329 36892 ft 509 kts 141°
2026-05-06 04:39 30.08520 107.25071 36894 ft 510 kts 140°
2026-05-06 04:39 30.03520 107.30947 36885 ft 514 kts 134°
2026-05-06 04:40 29.99268 107.37659 36887 ft 520 kts 123°
2026-05-06 04:40 29.96075 107.45183 36891 ft 523 kts 112°
2026-05-06 04:41 29.93883 107.53223 36895 ft 525 kts 107°
2026-05-06 04:41 29.92017 107.61375 36897 ft 526 kts 101°
2026-05-06 04:42 29.91302 107.69759 36914 ft 525 kts 89°
2026-05-06 04:42 29.92068 107.78123 36926 ft 524 kts 76°
2026-05-06 04:43 29.94059 107.86223 36943 ft 521 kts 71°
2026-05-06 04:43 29.96163 107.94244 36956 ft 521 kts 71°
2026-05-06 04:44 29.98165 108.02093 36983 ft 521 kts 71°
2026-05-06 04:44 30.00196 108.10156 36996 ft 521 kts 71°
2026-05-06 04:45 30.02204 108.18154 36995 ft 521 kts 71°
2026-05-06 04:45 30.04207 108.26166 36995 ft 520 kts 71°
2026-05-06 04:46 30.06208 108.34193 36997 ft 520 kts 71°
2026-05-06 04:46 30.08201 108.42194 37011 ft 519 kts 71°
2026-05-06 04:47 30.10189 108.50192 37017 ft 518 kts 71°
2026-05-06 04:47 30.12229 108.58131 37021 ft 518 kts 69°
2026-05-06 04:48 30.14528 108.66016 37025 ft 517 kts 69°
2026-05-06 04:48 30.16840 108.73888 37028 ft 517 kts 69°
2026-05-06 04:49 30.19121 108.81726 37035 ft 516 kts 69°
2026-05-06 04:49 30.21414 108.89630 37034 ft 517 kts 69°
2026-05-06 04:50 30.23528 108.97578 37040 ft 517 kts 72°
2026-05-06 04:50 30.25481 109.05556 37037 ft 516 kts 72°
2026-05-06 04:51 30.27422 109.13495 37026 ft 516 kts 72°
2026-05-06 04:51 30.29373 109.21474 37029 ft 516 kts 72°
2026-05-06 04:52 30.31331 109.29495 37033 ft 516 kts 72°
2026-05-06 04:52 30.33277 109.37479 37030 ft 516 kts 72°
2026-05-06 04:53 30.35223 109.45454 37021 ft 516 kts 72°
2026-05-06 04:53 30.37156 109.53451 37031 ft 516 kts 72°
2026-05-06 04:54 30.38986 109.61520 37035 ft 516 kts 76°
2026-05-06 04:54 30.40265 109.69701 37041 ft 517 kts 79°
2026-05-06 04:55 30.41450 109.77905 37044 ft 517 kts 79°
2026-05-06 04:55 30.42639 109.86096 37051 ft 516 kts 79°
2026-05-06 04:56 30.43834 109.94310 37064 ft 517 kts 79°
2026-05-06 04:56 30.45024 110.02512 37062 ft 516 kts 79°
2026-05-06 04:57 30.46207 110.10684 37066 ft 515 kts 79°
2026-05-06 04:57 30.47386 110.18891 37074 ft 516 kts 79°
2026-05-06 04:58 30.48564 110.27093 37070 ft 515 kts 79°
2026-05-06 04:58 30.49736 110.35319 37076 ft 516 kts 79°
2026-05-06 04:59 30.50896 110.43519 37093 ft 516 kts 79°
2026-05-06 04:59 30.52064 110.51769 37104 ft 515 kts 79°
2026-05-06 05:00 30.53222 110.60006 37105 ft 516 kts 79°
2026-05-06 05:00 30.54383 110.68299 37097 ft 515 kts 79°
2026-05-06 05:01 30.55530 110.76546 37086 ft 516 kts 79°
2026-05-06 05:01 30.56667 110.84752 37070 ft 515 kts 80°
2026-05-06 05:02 30.57804 110.92997 37056 ft 515 kts 79°
2026-05-06 05:02 30.58934 111.01211 37034 ft 516 kts 80°
2026-05-06 05:03 30.60059 111.09464 37016 ft 515 kts 79°
2026-05-06 05:03 30.61176 111.17664 36990 ft 515 kts 80°
2026-05-06 05:04 30.62298 111.25955 36951 ft 514 kts 80°
2026-05-06 05:04 30.63407 111.34203 36934 ft 514 kts 79°
2026-05-06 05:05 30.64532 111.42602 36915 ft 513 kts 80°
2026-05-06 05:05 30.65407 111.51047 36900 ft 514 kts 85°
2026-05-06 05:06 30.65843 111.59514 36901 ft 514 kts 86°
2026-05-06 05:06 30.66269 111.68108 36899 ft 512 kts 86°
2026-05-06 05:07 30.66700 111.76566 36893 ft 512 kts 86°
2026-05-06 05:07 30.67125 111.84975 36895 ft 511 kts 86°
2026-05-06 05:08 30.67553 111.93491 36886 ft 511 kts 86°
2026-05-06 05:08 30.68042 112.01955 36879 ft 511 kts 85°
2026-05-06 05:09 30.68642 112.10433 36888 ft 510 kts 84°
2026-05-06 05:09 30.69230 112.18870 36888 ft 511 kts 85°
2026-05-06 05:10 30.69799 112.27279 36889 ft 511 kts 85°
2026-05-06 05:10 30.70363 112.35719 36890 ft 510 kts 85°
2026-05-06 05:11 30.70917 112.44133 36897 ft 510 kts 85°
2026-05-06 05:11 30.71470 112.52588 36899 ft 511 kts 85°
2026-05-06 05:12 30.72014 112.60989 36902 ft 510 kts 84°
2026-05-06 05:12 30.72552 112.69383 36895 ft 509 kts 85°
2026-05-06 05:13 30.73080 112.77712 36903 ft 509 kts 85°
2026-05-06 05:13 30.73610 112.86150 36912 ft 508 kts 85°
2026-05-06 05:14 30.74135 112.94604 36915 ft 509 kts 85°
2026-05-06 05:14 30.74648 113.02963 36916 ft 508 kts 85°
2026-05-06 05:15 30.75158 113.11337 36912 ft 508 kts 85°
2026-05-06 05:15 30.75487 113.19620 36916 ft 508 kts 87°
2026-05-06 05:16 30.75697 113.27992 36919 ft 507 kts 87°
2026-05-06 05:16 30.75905 113.36474 36917 ft 508 kts 88°
2026-05-06 05:17 30.76112 113.44922 36920 ft 508 kts 87°
2026-05-06 05:17 30.76316 113.53348 36925 ft 506 kts 88°
2026-05-06 05:18 30.76518 113.61857 36920 ft 507 kts 87°
2026-05-06 05:18 30.76710 113.70259 36931 ft 506 kts 88°
2026-05-06 05:19 30.76894 113.78503 36927 ft 506 kts 88°
2026-05-06 05:19 30.77077 113.86826 36929 ft 505 kts 88°
2026-05-06 05:20 30.77251 113.95062 36931 ft 505 kts 88°
2026-05-06 05:20 30.77434 114.03353 36937 ft 504 kts 87°
2026-05-06 05:21 30.77826 114.11613 36939 ft 505 kts 83°
2026-05-06 05:21 30.78823 114.19717 36946 ft 503 kts 76°
2026-05-06 05:22 30.80637 114.27638 36945 ft 501 kts 69°
2026-05-06 05:22 30.83046 114.35272 36945 ft 500 kts 66°
2026-05-06 05:23 30.85552 114.42933 36941 ft 500 kts 66°
2026-05-06 05:23 30.89298 114.54507 36942 ft 500 kts 66°
2026-05-06 05:24 30.91809 114.62236 36941 ft 500 kts 66°
2026-05-06 05:24 30.94325 114.70003 36938 ft 500 kts 67°
2026-05-06 05:25 30.96813 114.77718 36935 ft 500 kts 67°
2026-05-06 05:25 30.99330 114.85531 36937 ft 500 kts 67°
2026-05-06 05:26 31.01827 114.93308 36942 ft 500 kts 67°
2026-05-06 05:26 31.04301 115.01028 36946 ft 501 kts 67°
2026-05-06 05:27 31.06799 115.08845 36960 ft 501 kts 67°
2026-05-06 05:27 31.09288 115.16652 36978 ft 501 kts 67°
2026-05-06 05:28 31.11757 115.24429 36997 ft 500 kts 67°
2026-05-06 05:28 31.14244 115.32250 37008 ft 500 kts 66°
2026-05-06 05:29 31.16761 115.40002 37007 ft 500 kts 66°
2026-05-06 05:29 31.19257 115.47700 37018 ft 500 kts 66°
2026-05-06 05:30 31.21768 115.55487 37042 ft 500 kts 66°
2026-05-06 05:30 31.24273 115.63264 37056 ft 500 kts 66°
2026-05-06 05:31 31.26754 115.70999 37069 ft 500 kts 66°
2026-05-06 05:31 31.29256 115.78814 37080 ft 499 kts 66°
2026-05-06 05:32 31.31738 115.86595 37068 ft 499 kts 66°
2026-05-06 05:32 31.34271 115.94433 37059 ft 498 kts 66°
2026-05-06 05:33 31.36798 116.02163 37044 ft 499 kts 65°
2026-05-06 05:33 31.39311 116.09876 37037 ft 498 kts 65°
2026-05-06 05:34 31.41824 116.17619 37024 ft 498 kts 65°
2026-05-06 05:34 31.44311 116.25304 37019 ft 498 kts 65°
2026-05-06 05:35 31.46810 116.33042 37006 ft 497 kts 65°
2026-05-06 05:35 31.49262 116.40651 36994 ft 497 kts 65°
2026-05-06 05:36 31.51722 116.48310 36990 ft 497 kts 65°
2026-05-06 05:36 31.54187 116.55993 36980 ft 496 kts 65°
2026-05-06 05:37 31.56652 116.63691 36978 ft 496 kts 65°
2026-05-06 05:37 31.59105 116.71380 36973 ft 496 kts 66°
2026-05-06 05:38 31.61544 116.79047 36971 ft 496 kts 66°
2026-05-06 05:38 31.63968 116.86679 36973 ft 496 kts 66°
2026-05-06 05:39 31.66412 116.94405 36972 ft 495 kts 66°
2026-05-06 05:39 31.68833 117.02069 36976 ft 495 kts 66°
2026-05-06 05:40 31.71216 117.09764 36975 ft 496 kts 66°
2026-05-06 05:40 31.73576 117.17423 36972 ft 495 kts 66°
2026-05-06 05:41 31.75593 117.25242 36976 ft 499 kts 73°
2026-05-06 05:41 31.76666 117.33410 36973 ft 502 kts 82°
2026-05-06 05:42 31.76724 117.41740 36975 ft 505 kts 91°
2026-05-06 05:42 31.76147 117.50022 36982 ft 506 kts 92°
2026-05-06 05:43 31.75538 117.58341 36980 ft 505 kts 92°
2026-05-06 05:43 31.74938 117.66726 36978 ft 505 kts 92°
2026-05-06 05:44 31.74349 117.75047 36989 ft 505 kts 92°
2026-05-06 05:44 31.73758 117.83343 36990 ft 505 kts 92°
2026-05-06 05:45 31.73163 117.91647 36998 ft 504 kts 92°
2026-05-06 05:45 31.72566 117.99895 36997 ft 504 kts 92°
2026-05-06 05:46 31.71962 118.08124 36999 ft 504 kts 92°
2026-05-06 05:46 31.71372 118.16352 37004 ft 504 kts 91°
2026-05-06 05:47 31.70798 118.24650 36999 ft 504 kts 91°
2026-05-06 05:47 31.70221 118.32906 36996 ft 504 kts 91°
2026-05-06 05:48 31.69637 118.41160 37003 ft 504 kts 91°
2026-05-06 05:48 31.69047 118.49434 37002 ft 505 kts 91°
2026-05-06 05:49 31.68449 118.57711 37014 ft 504 kts 91°
2026-05-06 05:49 31.67851 118.65915 36575 ft 504 kts 92°
2026-05-06 05:50 31.67552 118.70040 35578 ft 511 kts 92°
2026-05-06 05:50 31.67248 118.74223 34584 ft 516 kts 92°
2026-05-06 05:50 31.66936 118.78465 33722 ft 518 kts 92°
2026-05-06 05:50 31.66620 118.82716 32956 ft 519 kts 92°
2026-05-06 05:51 31.66300 118.86992 32222 ft 519 kts 92°
2026-05-06 05:51 31.65978 118.91277 31436 ft 521 kts 93°
2026-05-06 05:51 31.65312 118.95502 30545 ft 527 kts 107°
2026-05-06 05:51 31.63697 118.99394 29632 ft 531 kts 124°
2026-05-06 05:52 31.61266 119.02650 28770 ft 530 kts 140°
2026-05-06 05:52 31.58299 119.05278 28014 ft 528 kts 146°
2026-05-06 05:52 31.55319 119.07781 27291 ft 527 kts 146°
2026-05-06 05:52 31.52352 119.10307 26688 ft 523 kts 145°
2026-05-06 05:53 31.49435 119.12835 26290 ft 516 kts 144°
2026-05-06 05:53 31.46524 119.15384 25753 ft 511 kts 144°
2026-05-06 05:53 31.43652 119.17898 25263 ft 506 kts 144°
2026-05-06 05:53 31.40819 119.20371 24797 ft 500 kts 144°
2026-05-06 05:54 31.37988 119.22841 24334 ft 495 kts 144°
2026-05-06 05:54 31.35234 119.25242 23881 ft 490 kts 144°
2026-05-06 05:54 31.32484 119.27640 23429 ft 485 kts 144°
2026-05-06 05:54 31.29776 119.30000 22992 ft 479 kts 144°
2026-05-06 05:55 31.27074 119.32354 22549 ft 475 kts 144°
2026-05-06 05:55 31.24404 119.34678 22121 ft 471 kts 144°
2026-05-06 05:55 31.21783 119.36955 21697 ft 467 kts 144°
2026-05-06 05:55 31.19124 119.39265 21264 ft 463 kts 144°
2026-05-06 05:56 31.16538 119.41520 20824 ft 459 kts 144°
2026-05-06 05:56 31.13960 119.43769 20394 ft 455 kts 144°
2026-05-06 05:56 31.11403 119.46004 19967 ft 452 kts 144°
2026-05-06 05:56 31.08862 119.48222 19528 ft 448 kts 144°
2026-05-06 05:57 31.06348 119.50417 19104 ft 444 kts 144°
2026-05-06 05:57 31.03868 119.52580 18669 ft 441 kts 144°
2026-05-06 05:57 31.01371 119.54757 18242 ft 438 kts 144°
2026-05-06 05:57 30.98908 119.56902 17814 ft 434 kts 144°
2026-05-06 05:58 30.96475 119.59020 17382 ft 431 kts 144°
2026-05-06 05:58 30.94075 119.61108 16956 ft 428 kts 144°
2026-05-06 05:58 30.91702 119.63170 16525 ft 425 kts 144°
2026-05-06 05:58 30.89292 119.65263 16092 ft 422 kts 144°
2026-05-06 05:59 30.86938 119.67306 15666 ft 418 kts 144°
2026-05-06 05:59 30.84563 119.69369 15227 ft 416 kts 144°
2026-05-06 05:59 30.82229 119.71394 14788 ft 412 kts 144°
2026-05-06 05:59 30.79913 119.73402 14350 ft 410 kts 144°
2026-05-06 06:00 30.77636 119.75376 13922 ft 407 kts 143°
2026-05-06 06:00 30.75372 119.77338 13489 ft 404 kts 143°
2026-05-06 06:00 30.73109 119.79295 13060 ft 401 kts 143°
2026-05-06 06:00 30.70881 119.81233 12649 ft 398 kts 143°
2026-05-06 06:01 30.68690 119.83221 12218 ft 396 kts 142°
2026-05-06 06:01 30.66528 119.85209 11770 ft 393 kts 142°
2026-05-06 06:01 30.64300 119.87091 11336 ft 391 kts 147°
2026-05-06 06:01 30.61985 119.88769 10923 ft 387 kts 150°
2026-05-06 06:02 30.59601 119.90301 10527 ft 383 kts 152°
2026-05-06 06:02 30.57277 119.91774 10387 ft 372 kts 152°
2026-05-06 06:02 30.55029 119.93198 10323 ft 359 kts 152°
2026-05-06 06:02 30.52812 119.94602 10240 ft 347 kts 152°
2026-05-06 06:03 30.50690 119.95946 10173 ft 335 kts 152°
2026-05-06 06:03 30.48643 119.97244 10115 ft 324 kts 152°
2026-05-06 06:03 30.46660 119.98502 10064 ft 313 kts 152°
2026-05-06 06:03 30.44751 119.99711 10005 ft 303 kts 152°
2026-05-06 06:04 30.42884 120.00890 9717 ft 302 kts 152°
2026-05-06 06:04 30.41042 120.02056 9448 ft 301 kts 152°
2026-05-06 06:04 30.39201 120.03223 9163 ft 300 kts 152°
2026-05-06 06:04 30.37346 120.04394 8885 ft 299 kts 152°
2026-05-06 06:05 30.35500 120.05562 8572 ft 300 kts 152°
2026-05-06 06:05 30.33660 120.06725 8325 ft 297 kts 152°
2026-05-06 06:05 30.31840 120.07877 8115 ft 293 kts 152°
2026-05-06 06:05 30.30052 120.09008 7882 ft 291 kts 152°
2026-05-06 06:06 30.28231 120.10158 7527 ft 293 kts 152°
2026-05-06 06:06 30.26436 120.11292 7339 ft 289 kts 152°
2026-05-06 06:06 30.24660 120.12410 7135 ft 286 kts 152°
2026-05-06 06:06 30.22880 120.13429 6933 ft 281 kts 164°
2026-05-06 06:07 30.20938 120.13474 6677 ft 277 kts 198°
2026-05-06 06:07 30.19305 120.12327 6458 ft 272 kts 227°
2026-05-06 06:07 30.18304 120.10482 6270 ft 268 kts 244°
2026-05-06 06:07 30.17476 120.08528 6113 ft 264 kts 243°
2026-05-06 06:08 30.16428 120.06798 5939 ft 259 kts 217°
2026-05-06 06:08 30.14803 120.06062 5792 ft 255 kts 181°
2026-05-06 06:08 30.13085 120.06567 5595 ft 252 kts 150°
2026-05-06 06:08 30.11618 120.07657 5416 ft 248 kts 144°
2026-05-06 06:09 30.10503 120.09145 5014 ft 246 kts 108°
2026-05-06 06:09 30.10401 120.11080 4692 ft 241 kts 73°
2026-05-06 06:09 30.11124 120.12804 4385 ft 234 kts 59°
2026-05-06 06:09 30.11947 120.14410 4102 ft 227 kts 60°
2026-05-06 06:10 30.12709 120.15971 3957 ft 214 kts 62°
2026-05-06 06:10 30.13413 120.17477 3962 ft 202 kts 63°
2026-05-06 06:10 30.14054 120.18874 3957 ft 189 kts 62°
2026-05-06 06:10 30.14683 120.20220 3773 ft 187 kts 62°
2026-05-06 06:11 30.15295 120.21549 3530 ft 187 kts 63°
2026-05-06 06:11 30.15900 120.22891 3277 ft 188 kts 64°
2026-05-06 06:11 30.16500 120.24244 3025 ft 189 kts 63°
2026-05-06 06:11 30.17102 120.25612 2764 ft 190 kts 63°
2026-05-06 06:12 30.17708 120.26992 2521 ft 190 kts 63°
2026-05-06 06:12 30.18311 120.28362 2278 ft 188 kts 63°
2026-05-06 06:12 30.18898 120.29695 2037 ft 182 kts 63°
2026-05-06 06:12 30.19465 120.30981 1819 ft 175 kts 64°
2026-05-06 06:13 30.20009 120.32211 1604 ft 170 kts 63°
2026-05-06 06:13 30.20534 120.33402 1397 ft 164 kts 63°
2026-05-06 06:13 30.21048 120.34566 1189 ft 158 kts 63°
2026-05-06 06:13 30.21542 120.35683 990 ft 151 kts 63°
2026-05-06 06:14 30.22022 120.36768 810 ft 152 kts 63°
2026-05-06 06:14 30.22504 120.37858 618 ft 152 kts 62°
2026-05-06 06:14 30.22978 120.38933 424 ft 152 kts 63°
2026-05-06 06:14 30.23464 120.40029 227 ft 151 kts 62°
2026-05-06 06:15 30.23939 120.41105 58 ft 147 kts 62°
2026-05-06 06:15 30.24367 120.42071 46 ft 116 kts 62°
2026-05-06 06:15 30.24653 120.42712 46 ft 63 kts 62°
2026-05-06 06:15 30.24723 120.43013 46 ft 20 kts 89°
2026-05-06 06:16 30.24721 120.43094 46 ft 7 kts 104°
2026-05-06 06:16 30.24686 120.43139 46 ft 8 kts 161°
2026-05-06 06:16 30.24639 120.43108 45 ft 9 kts 235°
2026-05-06 06:16 30.24605 120.43034 45 ft 10 kts 242°
2026-05-06 06:17 30.24564 120.42963 46 ft 10 kts 216°
2026-05-06 06:17 30.24491 120.42968 46 ft 11 kts 151°
2026-05-06 06:17 30.24418 120.42998 46 ft 9 kts 195°
2026-05-06 06:17 30.24373 120.42941 46 ft 10 kts 239°
2026-05-06 06:18 30.24335 120.42862 46 ft 11 kts 232°
2026-05-06 06:18 30.24269 120.42853 46 ft 10 kts 155°
2026-05-06 06:18 30.24215 120.42880 46 ft 0 kts 154°
2026-05-06 06:18 30.24213 120.42881 46 ft 0 kts 161°
2026-05-06 06:19 30.24204 120.42879 46 ft 2 kts 199°
2026-05-06 06:19 30.24195 120.42863 46 ft 2 kts 270°
2026-05-06 06:19 30.24211 120.42836 46 ft 5 kts 320°
2026-05-06 06:19 30.24249 120.42808 46 ft 7 kts 330°
2026-05-06 06:20 30.24295 120.42806 46 ft 6 kts 43°
2026-05-06 06:20 30.24298 120.42851 46 ft 4 kts 121°
2026-05-06 06:20 30.24284 120.42881 46 ft 1 kts 117°
2026-05-06 06:20 30.24277 120.42897 46 ft 3 kts 115°
2026-05-06 06:21 30.24268 120.42919 46 ft 0 kts 115°
2026-05-06 06:21 30.24264 120.42929 46 ft 2 kts 115°
2026-05-06 06:21 30.24260 120.42937 46 ft 0 kts 115°
2026-05-06 06:21 30.24258 120.42944 46 ft 0 kts 115°
2026-05-06 06:22 30.24258 120.42943 46 ft 1 kts 115°
2026-05-06 06:22 30.24258 120.42942 46 ft 0 kts 115°